Flag for U.S.A. Weather past 2 weeks in Urbana, Illinois, U.S.A.

Now
57 °F

Sunny.


Feels Like: 54 °F
Forecast: 56 / 62 °F
Wind: 12 mph from Northeast

Location: University Of Illinois-Willard Airport

Current Time: Apr 19, 2015 at 9:10:18 AM

Latest Report: Apr 19, 2015 at 7:53 AM


Visibility: 10 mi

Pressure: 29.74 "Hg

Humidity: 72%

Dew point: 48 °F

Location of UrbanaLocation

Historic Weather in Urbana — Graph

°F

Urbana temperature yesterday

Maximum temperature yesterday: 80 °F (at 2:53 PM)
Minimum temperature yesterday: 53 °F (at 5:53 AM)
Average temperature yesterday: 67 °F

Past Weeks' High & Low Weather Summary

 TemperatureHumidityPressure
High80 °F (Apr 18, 2:53 PM)100% (Apr 7, 7:53 AM)30.37 "Hg (Apr 7, 7:53 AM)
Low31 °F (Apr 4, 7:53 AM)19% (Apr 5, 12:53 PM)29.57 "Hg (Apr 9, 8:53 PM)
Average58 °F64%30.03 "Hg
* Reported Apr 4 7:53 AM — Apr 19 7:53 AM, Urbana, Weather by CustomWeather, © 2015

Note: Actual official high and low records may vary slightly from our data, if they occured in-between our weather recording intervals... More about our weather records

Advertising

Urbana weather history for previous 24 hours

 ConditionsComfort  
Time TempWeatherWind HumidityBarometerVisibility
7:53 AM
Sun, Apr 19
57 °FSunny.12 mph72%29.74 "Hg10 mi
6:53 AM57 °FClear.13 mph72%29.75 "Hg10 mi
5:53 AM57 °FClear.13 mph74%29.76 "Hg10 mi
4:53 AM58 °FClear.10 mph75%29.79 "Hg10 mi
3:53 AM60 °FClear.12 mph72%29.81 "Hg10 mi
2:53 AM58 °FClear.10 mph75%29.83 "Hg9 mi
1:53 AM59 °FClear.13 mph72%29.85 "Hg9 mi
12:53 AM60 °FClear.13 mph69%29.87 "Hg10 mi
11:53 PM
Sat, Apr 18
63 °FClear.10 mph58%29.88 "Hg10 mi
10:53 PM61 °FClear.8 mph62%29.90 "Hg10 mi
9:53 PM64 °FClear.7 mph56%29.92 "Hg10 mi
8:53 PM63 °FClear.7 mph60%29.93 "Hg10 mi
7:53 PM64 °FSunny.7 mph54%29.93 "Hg10 mi
6:53 PM73 °FSunny.9 mph38%29.92 "Hg10 mi
5:53 PM78 °FSunny.15 mph31%29.92 "Hg10 mi
4:53 PM79 °FSunny.15 mph30%29.92 "Hg10 mi
3:53 PM80 °FPassing clouds.12 mph29%29.94 "Hg10 mi
2:53 PM80 °FSunny.17 mph28%29.96 "Hg10 mi
1:53 PM79 °FSunny.13 mph30%29.99 "Hg10 mi
12:53 PM77 °FSunny.12 mph33%30.01 "Hg10 mi
11:53 AM76 °FSunny.9 mph36%30.03 "Hg10 mi
10:53 AM74 °FSunny.9 mph40%30.03 "Hg10 mi
9:53 AM71 °FSunny.7 mph44%30.03 "Hg10 mi
Weather by CustomWeather, © 2015

See weather overviewHow to use our weather pages